SCP
0 0 0 0 0 0 0 0 0 0 0 0 0 0 0 0 0 0 0 0 0 0 0 0 0 0 0 0 0 0 0 0 0 0 0 0 0 0
0 0 0 0 0 0 0 0 0 0 0 0 0 0 0 0 0 0 0 0 0 0 0 0 0 0 0 0 0 0 0 0 0 0 0 0 0 0
0 0 0 0 0 0 0 0 0 0 0 0 0 0 0 0 0 0 0 0 0 0 0 0 0 0 0 0 0 0 0 0 0 0 0 0 0 0
0 0 0 0 0 0 0 0 0 0 0 0 0 0 0 0 0 0 0 0 0 0 0 0 0 0 0 0 0 0 0 0 0 0 0 0 0 0
0 0 0 0 0 0 0 0 0 0 0 0 0 0 0 0 0 0 0 0 0 0 0 0 0 0 0 0 0 0 0 0 0 0 0 0 0 0
0 0 0 0 0 0 0 0 0 0 0 0 0 0 0 0 0 0 0 0 0 0 0 0 0 0 0 0 0 0 0 0 0 0 0 0 0 0
0 0 0 0 0 0 0 0 0 0 0 0 0 0 0 0 0 0 0 0 0 0 0 0 0 0 0 0 0 0 0 0 0 0 0 0 0 0
0 0 0 0 0 0 0 0 0 0 0 0 0 0 0 0 0 0 0 0 0 0 0 0 0 0 0 0 0 0 0 0 0 0 0 0 0 0
0 0 0 0 0 0 0 0 0 0 0 0 0 0 0 0 0 0 0 0 0 0 0 0 0 0 0 0 0 0 0 0 0 0 0 0 0 0
0 0 0 0 0 0 0 0 0 0 0 0 0 0 0 0 0 0 0 0 0 0 0 0 0 0 0 0 0 0 0 0 0 0 0 0 0 0
0 0 0 0 0 0 0 0 0 0 0 0 0 0 0 0 0 0 0 0 0 0 0 0 0 0 0 0 0 0 0 0 0 0 0 0 0 0
0 0 0 0 0 0 0 0 0 0 0 0 0 0 0 0 0 0 0 0 0 0 0 0 0 0 0 0 0 0 0 0 0 0 0 0 0 0
0 0 0 0 0 0 0 0 0 0 0 0 0 0 0 0 0 0 0 0 0 0 0 0 0 0 0 0 0 0 0 0 0 0 0 0 0 0
0 0 0 0 0 0 0 0 0 0 0 0 0 0 0 0 0 0 0 0 0 0 0 0 0 0 0 0 0 0 0 0 0 0 0 0 0 0
0 0 0 0 0 0 0 0 0 0 0 0 0 0 0 0 0 0 0 0 0 0 0 0 0 0 0 0 0 0 0 0 0 0 0 0 0 0
0 0 0 0 0 0 0 0 0 0 0 0 0 0 0 0 0 0 0 0 0 0 0 0 0 0 0 0 0 0 0 0 0 0 0 0 0 0
0 0 0 0 0 0 0 0 0 0 0 0 0 0 0 0 0 0 0 0 0 0 0 0 0 0 0 0 0 0 0 0 0 0 0 0 0 0
0 0 0 0 0 0 0 0 0 0 0 0 0 0 0 0 0 0 0 0 0 0 0 0 0 0 0 0 0 0 0 0 0 0 0 0 0 0
0 0 0 0 0 0 0 0 0 0 0 0 0 0 0 0 0 0 0 0 0 0 0 0 0 0 0 0 0 0 0 0 0 0 0 0 0 0
0 0 0 0 0 0 0 0 0 0 0 0 0 0 0 0 0 0 0 0 0 0 0 0 0 0 0 0 0 0 0 0 0 0 0 0 0 0
0 0 0 0 0 0 0 0 0 0 0 0 0 0 0 0 0 0 0 0 0 0 0 0 0 0 0 0 0 0 0 0 0 0 0 0 0 0
0 0 0 0 0 0 0 0 0 0 0 0 0 0 0 0 0 0 0 0 0 0 0 0 0 0 0 0 0 0 0 0 0 0 0 0 0 0
0 0 0 0 0 0 0 0 0 0 0 0 0 0 0 0 0 0 0 0 0 0 0 0 0 0 0 0 0 0 0 0 0 0 0 0 0 0
Wind_Speed
6 7 7 6 6 7 7 8 9 12 12 12 9 9 9 10 14 14 15 19 22 23 24 24 24 24 24 25 25 25 25 25 25 25 25 25 25 25
6 8 8 7 7 7 8 8 9 11 13 10 11 12 13 11 15 16 16 23 23 23 23 23 24 24 24 25 25 25 24 24 24 25 25 25 25 25
8 9 10 10 8 8 8 9 9 10 14 14 12 12 15 15 13 14 14 15 14 22 24 24 25 25 25 25 24 24 24 24 24 24 24 24 24 24
10 10 11 9 11 10 9 11 10 11 13 17 14 13 15 15 15 15 13 13 14 20 24 25 26 25 25 24 24 24 23 23 23 22 22 22 22 22
10 11 12 12 13 11 12 11 10 11 12 13 15 13 12 12 14 14 15 13 14 15 20 22 23 24 24 24 24 24 22 21 21 21 21 21 21 21
11 12 12 12 13 13 12 13 12 12 12 12 13 13 12 13 13 12 12 11 12 12 15 17 20 23 23 23 22 22 21 21 21 21 21 20 20 21
12 12 13 14 17 15 12 12 12 11 11 11 12 12 12 12 11 11 12 12 13 12 12 12 12 11 13 16 18 18 19 20 20 20 20 20 20 21
13 13 13 14 16 19 21 21 19 15 13 12 12 13 15 14 12 11 12 13 13 10 11 12 11 12 11 11 16 19 20 20 20 20 20 20 20 20
13 13 11 11 15 13 16 19 19 22 22 17 16 16 16 15 15 15 13 14 14 11 11 13 11 12 11 11 18 19 19 19 18 18 18 18 17 18
13 14 14 14 12 13 13 14 15 16 17 14 13 15 16 15 14 14 14 13 13 11 11 11 11 11 10 10 13 15 16 15 15 15 15 15 15 16
13 13 14 14 17 19 16 16 16 15 16 20 21 21 23 23 18 11 10 11 12 11 9 9 9 10 10 9 9 12 12 12 13 13 13 13 13 13
11 12 15 16 18 20 16 15 15 14 14 14 15 15 15 15 17 12 9 10 11 10 7 7 8 8 7 6 6 6 7 9 10 11 11 11 11 8
10 10 10 16 19 21 20 15 17 17 14 12 10 10 10 8 8 8 6 8 10 10 7 7 7 8 7 7 7 7 6 6 6 6 7 8 9 8
12 11 11 18 21 22 18 18 22 19 10 9 9 9 9 8 7 8 7 7 9 11 11 9 7 8 8 9 8 6 6 5 5 5 5 6 7 7
12 17 21 23 22 17 17 20 16 10 8 9 9 9 8 8 8 7 8 7 9 9 9 9 8 8 8 8 8 7 6 5 5 4 4 4 4 4
12 15 20 20 16 16 15 11 8 8 8 8 9 8 8 8 7 7 7 7 7 7 6 7 7 8 7 8 8 7 6 4 4 4 4 4 3 3
13 10 10 9 8 8 8 8 7 7 8 7 8 8 8 8 7 6 6 6 7 7 6 4 5 6 7 7 7 6 5 5 4 3 4 4 4 3
16 10 10 9 9 9 9 8 8 7 7 7 8 8 8 8 7 7 6 6 7 6 6 5 4 5 4 5 6 6 5 4 3 3 3 4 4 3
12 10 9 9 9 9 8 8 8 8 7 8 8 8 8 8 7 7 6 6 6 6 5 4 4 4 6 5 2 4 4 4 3 3 3 3 4 3
9 9 9 9 9 8 8 8 8 8 7 8 8 8 7 8 7 7 6 7 6 6 6 4 4 4 5 5 4 2 3 4 3 3 2 2 3 4
9 9 9 9 9 8 8 8 9 8 8 8 8 8 8 7 7 7 7 9 8 6 6 5 3 4 4 4 5 4 2 2 3 3 3 3 3 3
9 9 9 9 8 8 8 8 8 8 9 8 8 8 7 7 7 8 7 7 6 6 6 5 3 3 4 5 5 4 2 1 2 4 5 4 3 3
9 9 9 9 8 7 7 9 10 9 8 8 8 7 7 7 7 7 7 7 6 6 6 5 4 4 4 4 5 4 3 3 2 2 2 3 5 4
Wind_Direction
266 267 266 268 267 267 268 270 279 291 294 298 296 292 288 287 292 293 293 294 296 296 295 294 293 292 290 289 288 287 285 285 284 282 280 278 277 276
265 268 270 270 270 267 264 266 266 273 283 289 292 292 293 288 289 291 292 295 293 293 293 293 293 292 290 289 287 286 285 284 283 281 280 279 279 277
266 267 270 273 273 271 268 267 266 269 277 286 289 294 295 293 292 289 290 291 291 291 293 294 294 293 291 290 288 287 286 285 285 284 283 282 281 280
272 272 273 274 272 272 271 270 271 273 278 288 292 294 294 294 290 289 288 287 287 290 291 292 292 292 291 290 289 288 287 286 286 285 284 283 283 282
273 273 274 275 275 275 275 275 276 277 277 282 288 291 291 290 290 286 286 285 286 287 289 289 290 291 291 290 289 289 288 288 287 285 283 282 283 283
270 270 271 271 273 277 279 279 279 279 278 278 282 286 287 288 287 288 289 288 288 290 289 288 288 289 288 287 288 288 289 288 286 284 282 281 280 280
270 268 268 268 271 273 274 276 277 276 278 278 281 285 286 289 289 291 290 291 288 288 288 287 289 288 289 288 286 284 285 285 283 282 280 279 278 277
273 273 273 270 270 272 274 277 279 280 281 280 282 283 286 288 290 290 290 290 290 290 290 290 290 287 286 283 283 286 286 284 282 282 281 281 280 279
277 278 277 275 277 277 280 282 280 278 276 277 279 281 286 289 291 290 286 285 286 291 292 287 286 283 283 281 283 284 285 286 287 286 284 284 284 283
277 278 280 281 281 282 281 279 277 276 274 274 273 277 280 284 283 284 286 285 283 279 277 282 287 287 289 286 286 286 288 291 292 292 290 289 289 288
279 278 278 280 283 286 285 283 283 281 279 277 278 281 284 288 289 290 290 289 290 292 290 283 289 295 293 289 285 286 290 294 297 298 298 298 297 295
281 278 276 277 283 288 287 287 286 287 289 289 286 285 285 286 287 283 284 285 288 291 294 292 293 302 295 289 295 297 293 291 291 291 296 300 302 296
284 283 281 284 287 290 290 287 286 291 292 291 289 286 285 280 276 274 266 271 280 282 292 298 292 292 285 291 295 294 295 298 299 295 289 292 298 297
284 285 285 289 291 293 293 290 293 296 292 289 287 287 287 287 287 285 273 267 267 274 282 284 280 284 287 289 293 295 294 292 293 295 298 297 287 285
282 285 289 291 294 293 290 292 295 291 287 283 282 284 288 289 288 283 276 263 262 263 265 266 268 275 274 279 287 292 295 292 287 289 297 301 303 301
284 286 288 288 287 286 289 290 284 280 280 280 282 287 289 286 281 281 283 286 284 281 263 262 265 269 272 276 279 284 286 287 294 294 294 294 293 296
294 288 283 283 282 283 285 286 284 282 281 279 281 285 286 285 284 283 281 284 283 288 291 283 270 264 264 273 277 276 281 283 286 296 296 293 292 293
295 287 287 287 288 291 292 291 288 284 283 282 282 283 284 286 287 284 279 277 281 286 289 292 293 286 263 240 236 270 278 282 287 285 283 288 293 303
289 284 286 288 289 288 287 287 286 285 286 283 280 280 281 281 281 281 279 278 278 282 286 287 284 285 290 293 222 225 280 295 289 278 277 285 299 321
280 281 283 285 285 283 284 285 285 285 282 280 279 278 278 278 278 278 278 279 281 283 282 277 273 278 287 303 310 293 266 283 287 284 290 298 299 299
282 281 283 283 280 279 281 283 283 283 283 282 280 278 276 275 274 275 278 279 276 275 277 280 286 292 283 271 265 260 264 261 285 295 296 288 291 294
282 283 282 279 279 278 279 281 281 279 280 276 276 276 275 272 272 273 274 275 272 272 276 279 276 266 252 255 267 276 277 280 257 260 268 282 299 314
283 283 281 280 277 276 277 279 278 276 275 275 276 275 274 274 273 271 271 268 268 268 269 272 268 256 254 260 266 268 266 266 262 250 246 250 261 271